When you browse on this site, cookies collect data to enhance your experience and personalize the content and advertising you see.
Visit our Privacy Policy to learn more. By continuing to use the site, you agree to this use of cookies and data.
  • In Portugal
  • List of Countries
  • For 7 days
  • Water Temperature
  • Weather Map
  • Weather Widgets
  • user-avatar
    Login

    Hourly Weather Klinina

    Today, 19 September, Thursday

    Time Temperature Precipitation Wind Pressure Humidity
    00:00 +4°C° 0 mm 2 mps 702 mmHg 86%
    01:00 +3°C° 0 mm 2 mps 702 mmHg 91%
    02:00 +4°C° 0 mm 1 mps 702 mmHg 91%
    03:00 +4°C° 0 mm 1 mps 702 mmHg 92%
    04:00 +4°C° 0 mm 1 mps 702 mmHg 93%
    05:00 +4°C° 0 mm 1 mps 702 mmHg 90%
    06:00 +5°C° 0 mm 1 mps 703 mmHg 87%
    07:00 +5°C° 0 mm 2 mps 703 mmHg 84%
    08:00 +6°C° 0.1 mm 2 mps 703 mmHg 77%
    09:00 +7°C° 0.1 mm 2 mps 704 mmHg 69%
    10:00 +9°C° 0.1 mm 3 mps 704 mmHg 62%
    11:00 +9°C° 0.2 mm 3 mps 704 mmHg 61%
    12:00 +10°C° 0.2 mm 3 mps 704 mmHg 59%
    13:00 +10°C° 0.2 mm 4 mps 704 mmHg 58%
    14:00 +10°C° 0.1 mm 4 mps 704 mmHg 60%
    15:00 +8°C° 0.1 mm 4 mps 703 mmHg 63%
    16:00 +8°C° 0.1 mm 4 mps 703 mmHg 65%
    17:00 +7°C° 0.2 mm 3 mps 703 mmHg 74%
    18:00 +5°C° 0.2 mm 3 mps 703 mmHg 83%
    19:00 +5°C° 0.2 mm 2 mps 703 mmHg 91%
    20:00 +4°C° 0.3 mm 2 mps 703 mmHg 92%
    21:00 +4°C° 0.3 mm 2 mps 704 mmHg 93%
    22:00 +3°C° 0.3 mm 2 mps 704 mmHg 94%
    23:00 +3°C° 0 mm 2 mps 704 mmHg 94%

    Tomorrow, 20 September, Friday

    Time Temperature Precipitation Wind Pressure Humidity
    00:00 +3°C° 0 mm 2 mps 704 mmHg 94%
    01:00 +2°C° 0 mm 2 mps 704 mmHg 94%
    02:00 +2°C° 0 mm 2 mps 704 mmHg 94%
    03:00 +2°C° 0 mm 2 mps 704 mmHg 95%
    04:00 +2°C° 0 mm 2 mps 704 mmHg 95%
    05:00 +2°C° 0 mm 2 mps 704 mmHg 93%
    06:00 +3°C° 0 mm 2 mps 704 mmHg 92%
    07:00 +4°C° 0 mm 2 mps 705 mmHg 90%
    08:00 +5°C° 0 mm 2 mps 705 mmHg 82%
    09:00 +7°C° 0 mm 2 mps 706 mmHg 75%
    10:00 +8°C° 0 mm 3 mps 706 mmHg 67%
    11:00 +9°C° 0.1 mm 3 mps 706 mmHg 62%
    12:00 +10°C° 0.1 mm 3 mps 706 mmHg 58%
    13:00 +10°C° 0.1 mm 3 mps 705 mmHg 54%
    14:00 +10°C° 0 mm 3 mps 705 mmHg 56%
    15:00 +10°C° 0 mm 3 mps 705 mmHg 58%
    16:00 +10°C° 0 mm 2 mps 705 mmHg 60%
    17:00 +8°C° 0 mm 2 mps 705 mmHg 68%
    18:00 +7°C° 0 mm 1 mps 705 mmHg 76%
    19:00 +5°C° 0 mm 1 mps 704 mmHg 84%
    20:00 +5°C° 0 mm 1 mps 705 mmHg 84%
    21:00 +5°C° 0 mm 1 mps 705 mmHg 85%
    22:00 +4°C° 0 mm 1 mps 705 mmHg 85%
    23:00 +4°C° 0 mm 1 mps 705 mmHg 85%

    Day after tomorrow, 21 September, Saturday

    Time Temperature Precipitation Wind Pressure Humidity
    00:00 +4°C° 0 mm 1 mps 705 mmHg 85%
    01:00 +4°C° 0 mm 1 mps 705 mmHg 85%
    02:00 +4°C° 0 mm 1 mps 705 mmHg 85%
    03:00 +3°C° 0 mm 1 mps 704 mmHg 84%
    04:00 +3°C° 0 mm 1 mps 704 mmHg 84%
    05:00 +4°C° 0 mm 1 mps 705 mmHg 79%
    06:00 +5°C° 0 mm 1 mps 705 mmHg 75%
    07:00 +6°C° 0 mm 1 mps 705 mmHg 70%
    08:00 +9°C° 0 mm 1 mps 705 mmHg 63%
    09:00 +11°C° 0 mm 1 mps 706 mmHg 55%
    10:00 +14°C° 0 mm 1 mps 706 mmHg 47%
    11:00 +15°C° 0 mm 1 mps 706 mmHg 46%
    12:00 +16°C° 0 mm 1 mps 705 mmHg 44%
    13:00 +16°C° 0 mm 1 mps 705 mmHg 42%
    14:00 +16°C° 0 mm 1 mps 705 mmHg 47%
    15:00 +15°C° 0 mm 1 mps 704 mmHg 52%
    16:00 +15°C° 0 mm 1 mps 704 mmHg 57%
    17:00 +13°C° 0 mm 1 mps 704 mmHg 64%
    18:00 +10°C° 0 mm 1 mps 703 mmHg 71%
    19:00 +8°C° 0 mm 1 mps 703 mmHg 78%
    20:00 +8°C° 0 mm 1 mps 703 mmHg 79%
    21:00 +8°C° 0 mm 1 mps 703 mmHg 79%
    22:00 +7°C° 0 mm 1 mps 703 mmHg 80%
    23:00 +7°C° 0 mm 1 mps 703 mmHg 80%

    22 September, Sunday

    Time Temperature Precipitation Wind Pressure Humidity
    00:00 +7°C° 0 mm 1 mps 702 mmHg 80%
    01:00 +7°C° 0 mm 1 mps 702 mmHg 80%
    02:00 +6°C° 0 mm 1 mps 702 mmHg 80%
    03:00 +6°C° 0 mm 1 mps 702 mmHg 80%
    04:00 +6°C° 0 mm 1 mps 701 mmHg 79%
    05:00 +7°C° 0 mm 1 mps 702 mmHg 76%
    06:00 +8°C° 0 mm 1 mps 702 mmHg 73%
    07:00 +9°C° 0 mm 1 mps 702 mmHg 69%
    08:00 +11°C° 0 mm 1 mps 702 mmHg 62%
    09:00 +13°C° 0 mm 1 mps 702 mmHg 54%
    10:00 +16°C° 0 mm 1 mps 702 mmHg 47%
    11:00 +17°C° 0 mm 2 mps 702 mmHg 45%
    12:00 +18°C° 0 mm 2 mps 701 mmHg 44%
    13:00 +19°C° 0 mm 2 mps 701 mmHg 42%
    14:00 +18°C° 0 mm 2 mps 701 mmHg 47%
    15:00 +18°C° 0 mm 2 mps 700 mmHg 51%
    16:00 +17°C° 0 mm 2 mps 699 mmHg 55%
    17:00 +15°C° 0 mm 2 mps 699 mmHg 59%
    18:00 +13°C° 0 mm 2 mps 698 mmHg 63%
    19:00 +10°C° 0 mm 2 mps 698 mmHg 68%
    20:00 +10°C° 0 mm 2 mps 698 mmHg 65%
    21:00 +10°C° 0 mm 2 mps 697 mmHg 62%
    22:00 +10°C° 0 mm 2 mps 697 mmHg 59%
    23:00 +12°C° 0 mm 2 mps 697 mmHg 56%

    23 September, Monday

    Time Temperature Precipitation Wind Pressure Humidity
    00:00 +12°C° 0 mm 2 mps 697 mmHg 53%
    01:00 +13°C° 0 mm 2 mps 696 mmHg 50%
    02:00 +12°C° 0 mm 2 mps 696 mmHg 52%
    03:00 +12°C° 0 mm 2 mps 696 mmHg 53%
    04:00 +10°C° 0 mm 2 mps 695 mmHg 55%
    05:00 +10°C° 0 mm 2 mps 695 mmHg 57%
    06:00 +12°C° 0 mm 2 mps 695 mmHg 60%
    07:00 +12°C° 0 mm 2 mps 695 mmHg 63%
    08:00 +14°C° 0 mm 2 mps 695 mmHg 59%
    09:00 +16°C° 0 mm 2 mps 695 mmHg 56%
    10:00 +18°C° 0 mm 2 mps 695 mmHg 52%
    11:00 +18°C° 0 mm 2 mps 695 mmHg 52%
    12:00 +19°C° 0 mm 2 mps 695 mmHg 53%
    13:00 +19°C° 0 mm 2 mps 695 mmHg 54%
    14:00 +18°C° 0 mm 2 mps 695 mmHg 59%
    15:00 +17°C° 0 mm 2 mps 694 mmHg 65%
    16:00 +16°C° 0 mm 2 mps 694 mmHg 71%
    17:00 +15°C° 0 mm 2 mps 694 mmHg 74%
    18:00 +14°C° 0 mm 1 mps 694 mmHg 77%
    19:00 +13°C° 0 mm 1 mps 694 mmHg 80%
    20:00 +13°C° 0.4 mm 1 mps 694 mmHg 85%
    21:00 +12°C° 0.4 mm 1 mps 694 mmHg 90%
    22:00 +12°C° 0.4 mm 2 mps 694 mmHg 95%
    23:00 +12°C° 1.2 mm 2 mps 694 mmHg 95%

    24 September, Tuesday

    Time Temperature Precipitation Wind Pressure Humidity
    00:00 +12°C° 1.2 mm 2 mps 694 mmHg 95%
    01:00 +11°C° 1.2 mm 3 mps 694 mmHg 95%
    02:00 +10°C° 0.1 mm 2 mps 694 mmHg 95%
    03:00 +9°C° 0.1 mm 2 mps 694 mmHg 94%
    04:00 +9°C° 0.1 mm 2 mps 694 mmHg 94%
    05:00 +9°C° 0 mm 2 mps 694 mmHg 93%
    06:00 +9°C° 0 mm 2 mps 694 mmHg 92%
    07:00 +9°C° 0 mm 2 mps 694 mmHg 91%
    08:00 +10°C° 0.6 mm 3 mps 695 mmHg 89%
    09:00 +10°C° 0.6 mm 3 mps 695 mmHg 87%
    10:00 +10°C° 0.6 mm 4 mps 695 mmHg 86%
    11:00 +10°C° 1.2 mm 3 mps 695 mmHg 87%
    12:00 +10°C° 1.2 mm 3 mps 695 mmHg 89%
    13:00 +10°C° 1.2 mm 3 mps 695 mmHg 91%
    14:00 +10°C° 0.2 mm 2 mps 695 mmHg 89%
    15:00 +12°C° 0.2 mm 2 mps 695 mmHg 88%
    16:00 +13°C° 0.2 mm 2 mps 695 mmHg 87%
    17:00 +12°C° 0 mm 2 mps 696 mmHg 88%
    18:00 +10°C° 0 mm 2 mps 696 mmHg 90%
    19:00 +9°C° 0 mm 1 mps 696 mmHg 92%
    20:00 +9°C° 0 mm 1 mps 696 mmHg 92%
    21:00 +9°C° 0 mm 1 mps 696 mmHg 92%
    22:00 +9°C° 0 mm 1 mps 696 mmHg 93%
    23:00 +8°C° 0 mm 2 mps 696 mmHg 93%
    Show more